Location: Newark
(39.0622°N, 106.5590°E)
Time: 23:04:25
(UTC+00:00)

S-56A Canister/Altair - Pass Details

Date: 24 January 2020
Orbit: 633 x 2499 km, 38.9° (Epoch: 19 February)

Event Time Altitude Azimuth Distance (km) Brightness Sun altitude
Rises 13:18:17 0° 240° (WSW) 4,095 11.9 -37.5°
Reaches altitude 10° 13:21:35 10° 237° (WSW) 2,852 10.9 -38.1°
Enters shadow 13:24:22 24° 228° (SW) 1,827 9.7 -38.7°
